Home > Weather > Bursa > Past weeks

Flag for Turkey Past Weather in Bursa, Turkey — Yesterday and Last 2 Weeks

Now
79 °F

Clear.


Feels Like: 81 °F
Forecast: 70 / 87 °F
Wind: 2 mph from Northeast

Location: Bursa

Current Time: Jun 26, 2016 at 4:04:24 AM

Latest Report: Jun 26, 2016 at 2:00 AM


Visibility: 9 mi

Pressure: 29.79 "Hg

Humidity: 67%

Dew Point: 67 °F

Location of BursaLocation

Past Weather in Bursa — Graph

°F

Bursa Temperature Yesterday

Maximum temperature yesterday: 95 °F (at 3:00 PM)
Minimum temperature yesterday: 77 °F (at 5:00 AM)
Average temperature yesterday: 85 °F

High & Low Weather Summary for the Past Weeks

 TemperatureHumidityPressure
High100 °F (Jun 19, 3:00 PM)99% (Jun 15, 6:00 AM)30.08 "Hg (Jun 15, 6:00 AM)
Low53 °F (Jun 12, 5:00 AM)18% (Jun 11, 7:00 PM)29.56 "Hg (Jun 14, 6:00 PM)
Average80 °F56%29.90 "Hg
* Reported Jun 11 2:00 AM — Jun 26 2:00 AM, Bursa, Weather by CustomWeather, © 2016

Note: Actual official high and low records may vary slightly from our data, if they occured in-between our weather recording intervals... More about our weather records

Advertising

Bursa Weather History for the Previous 24 Hours

Scroll right to see more
 ConditionsComfort  
Time TempWeatherWind HumidityBarometerVisibility
2:00 AM
Sun, Jun 26
79 °FClear.2 mph67%29.79 "Hg9 mi
1:00 AM81 °FClear.5 mph62%29.79 "Hg12 mi
12:00 AM81 °FClear.7 mph62%29.79 "Hg12 mi
11:00 PM
Sat, Jun 25
82 °FClear.10 mph60%29.80 "Hg12 mi
10:00 PM84 °FClear.10 mph56%29.79 "Hg12 mi
9:00 PM84 °FClear.9 mph56%29.78 "Hg12 mi
8:00 PM87 °FSunny.10 mph53%29.78 "Hg12 mi
7:00 PM89 °FSunny.14 mph51%29.78 "Hg12 mi
6:00 PM91 °FSunny.15 mph49%29.78 "Hg12 mi
5:00 PM93 °FSunny.17 mph46%29.79 "Hg12 mi
4:00 PM94 °FSunny.14 mph42%29.80 "Hg12 mi
3:00 PM95 °FSunny.12 mph41%29.81 "Hg12 mi
2:00 PM93 °FSunny.8 mph41%29.83 "Hg12 mi
1:00 PM92 °FSunny.8 mph42%29.85 "Hg12 mi
12:00 PM89 °FSunny.9 mph44%29.86 "Hg12 mi
11:00 AM87 °FSunny.8 mph47%29.87 "Hg12 mi
10:00 AM84 °FSunny.9 mph49%29.87 "Hg12 mi
9:00 AM81 °FSunny.12 mph53%29.88 "Hg9 mi
8:00 AM80 °FSunny.9 mph57%29.88 "Hg9 mi
7:00 AM78 °FSunny.10 mph56%29.87 "Hg9 mi
6:00 AM78 °FSunny.9 mph54%29.87 "Hg9 mi
5:00 AM77 °FClear.6 mph56%29.87 "Hg9 mi
4:00 AM80 °FClear.10 mph49%29.88 "Hg9 mi
Weather by CustomWeather, © 2016

See weather overviewHow to use our weather pages